TimeEST,TemperatureF,Dew PointF,Humidity,Sea Level PressureIn,VisibilityMPH,Wind Direction,Wind SpeedMPH,Gust SpeedMPH,PrecipitationIn,Events,Conditions,WindDirDegrees,DateUTC
12:53 AM,64.0,57.9,80,29.92,10.0,Calm,Calm,-,N/A,,Mostly Cloudy,0,2013-12-03 05:53:00
1:53 AM,64.0,59.0,84,29.92,10.0,Calm,Calm,-,N/A,,Mostly Cloudy,0,2013-12-03 06:53:00
2:53 AM,62.1,57.9,86,29.92,10.0,Calm,Calm,-,N/A,,Partly Cloudy,0,2013-12-03 07:53:00
3:53 AM,62.1,55.9,80,29.92,10.0,East,3.5,-,N/A,,Scattered Clouds,80,2013-12-03 08:53:00
4:53 AM,61.0,55.0,81,29.93,10.0,SE,6.9,-,N/A,,Partly Cloudy,130,2013-12-03 09:53:00
5:53 AM,61.0,57.4,88,29.93,10.0,SE,5.8,-,N/A,,Clear,140,2013-12-03 10:53:00
6:53 AM,60.1,58.6,95,29.94,10.0,ESE,9.2,-,N/A,,Partly Cloudy,120,2013-12-03 11:53:00
7:53 AM,66.9,56.8,70,29.96,10.0,ESE,5.8,-,N/A,,Partly Cloudy,120,2013-12-03 12:53:00
8:53 AM,71.1,59.2,66,29.96,10.0,SSE,6.9,-,N/A,,Scattered Clouds,150,2013-12-03 13:53:00
9:53 AM,72.7,59.9,64,29.99,10.0,SE,6.9,-,N/A,,Scattered Clouds,140,2013-12-03 14:53:00
10:53 AM,75.6,60.4,59,29.99,10.0,South,8.1,-,N/A,,Scattered Clouds,170,2013-12-03 15:53:00
11:53 AM,77.0,61.5,59,29.98,10.0,South,6.9,-,N/A,,Scattered Clouds,190,2013-12-03 16:53:00
12:53 PM,77.5,61.3,57,29.96,10.0,SW,10.4,-,N/A,,Scattered Clouds,220,2013-12-03 17:53:00
1:53 PM,76.6,60.8,58,29.93,10.0,SW,6.9,-,N/A,,Mostly Cloudy,220,2013-12-03 18:53:00
2:53 PM,77.5,60.6,56,29.91,10.0,South,8.1,-,N/A,,Scattered Clouds,180,2013-12-03 19:53:00
3:53 PM,75.4,61.2,61,29.91,10.0,SSW,9.2,-,N/A,,Mostly Cloudy,210,2013-12-03 20:53:00
4:53 PM,73.4,62.4,68,29.92,10.0,SSW,8.1,-,N/A,,Mostly Cloudy,200,2013-12-03 21:53:00
5:53 PM,72.7,65.1,77,29.94,10.0,SSW,9.2,-,N/A,,Mostly Cloudy,210,2013-12-03 22:53:00
6:53 PM,72.5,65.5,79,29.96,10.0,SSW,10.4,-,N/A,,Mostly Cloudy,200,2013-12-03 23:53:00
7:53 PM,72.5,64.4,76,29.96,10.0,South,9.2,-,N/A,,Mostly Cloudy,170,2013-12-04 00:53:00
8:53 PM,71.8,64.9,79,29.96,10.0,South,10.4,-,N/A,,Scattered Clouds,180,2013-12-04 01:53:00
9:53 PM,72.0,65.7,80,29.97,10.0,South,11.5,-,N/A,,Scattered Clouds,180,2013-12-04 02:53:00
10:53 PM,70.5,65.5,84,29.99,10.0,South,8.1,-,N/A,,Partly Cloudy,190,2013-12-04 03:53:00
11:53 PM,65.8,63.0,90,30.01,10.0,South,6.9,-,N/A,,Partly Cloudy,180,2013-12-04 04:53:00